Location: Newark
(51.1667°N, 4.4833°E)
Time: 20:30:10
(UTC+00:00)

Envisat - Visible Passes

Search period start: 17 October 2019 00:00
Search period end: 27 October 2019 00:00
Orbit: 764 x 766 km, 98.1° (Epoch: 17 October)

Date Brightness Start Highest point End Pass type
(mag) Time Alt. Az. Time Alt. Az. Time Alt. Az.
17 Oct 3.2 17:44:08 10° S 17:49:13 77° WSW 17:54:20 10° NNW visible
17 Oct 6.1 19:27:04 10° WSW 19:29:07 12° W 19:31:11 10° WNW visible
18 Oct 5.3 18:47:44 10° SW 18:51:51 24° W 18:56:00 10° NW visible
19 Oct 6.4 05:12:48 10° ENE 05:15:12 13° E 05:17:35 10° ESE visible
19 Oct 4.1 18:09:54 10° S 18:14:48 47° W 18:19:44 10° NNW visible
20 Oct 3.0 17:32:51 10° SSE 17:37:56 88° ENE 17:43:04 10° NNW visible
20 Oct 6.0 19:14:45 10° WSW 19:17:41 15° W 19:20:38 10° NW visible
21 Oct 6.0 05:37:10 10° NE 05:41:03 21° E 05:44:55 10° SE visible
21 Oct 5.0 18:36:04 10° SSW 18:40:29 30° W 18:44:56 10° NNW visible
22 Oct 6.7 05:02:45 10° ENE 05:03:45 10° E 05:04:44 10° E visible
22 Oct 3.7 17:58:29 10° S 18:03:30 58° W 18:08:31 10° NNW visible
23 Oct 3.0 17:21:37 10° SSE 17:26:41 73° ENE 17:31:47 10° N visible
23 Oct 5.7 19:02:45 10° SW 19:06:16 19° W 19:09:49 10° NW visible
24 Oct 6.1 05:26:15 10° NE 05:29:39 18° E 05:33:01 10° SE visible
24 Oct 4.6 18:24:28 10° SSW 18:29:08 36° W 18:33:50 10° NNW visible
25 Oct 3.3 17:47:07 10° S 17:52:12 71° WSW 17:57:18 10° NNW visible
25 Oct 6.2 19:30:37 10° W 19:32:10 11° W 19:33:43 10° WNW visible
26 Oct 3.0 17:10:27 10° SSE 17:15:27 60° ENE 17:20:28 10° N visible
26 Oct 5.4 18:50:54 10° SW 18:54:53 23° W 18:58:52 10° NW visible
